Regional Weather Roundup
Issued by NWS

Home | Current Version | Previous Version | Text Only | Print | Product List | Glossary On
Versions: 1 2 3 4 5 6 7 8 9 10 11 12 13 14 15 16 17 18 19 20 21 22 23 24 25 26 27 28 29 30 31 32 33 34 35 36 37 38 39 40 41 42 43 44 45 46 47 48 49 50
000
ASUS45 KBOU 252107
RWRCO

WEATHER ROUNDUP FOR COLORADO
NATIONAL WEATHER SERVICE DENVER/BOULDER CO
300 PM MDT MON MAY 25 2015

NOTE: "FAIR" INDICATES FEW OR NO CLOUDS BELOW 12000 FEET WITH NO
SIGNIFICANT WEATHER AND/OR OBSTRUCTIONS TO VISIBILITY.

COZ001>005-013-030-031-252200-
...NORTHWEST COLORADO...

CITY           SKY/WX    TMP DP  RH WIND       PRES   REMARKS
CRAIG          PTSUNNY   57  43  59 N7        30.00S
HAYDEN         MOSUNNY   55  37  50 N13       30.01S
MEEKER         MOSUNNY   60  39  45 SW9G16    30.00F
MOUNT WERNER   NOT AVBL
STEAMBOAT SPGS CLOUDY    48  40  71 S6        30.02S
WALDEN         CLOUDY    46  36  66 N13G22    30.04R
$$

COZ006>008-011-252200-
...WEST CENTRAL VALLEYS...

CITY           SKY/WX    TMP DP  RH WIND       PRES   REMARKS
GRAND JUNCTION MOSUNNY   65  42  43 NW8       29.96F
MONTROSE       PTSUNNY   59  41  51 S8        30.03F
EAGLE          LGT RAIN  54  43  66 S14       30.02R
RIFLE          PTSUNNY   61  42  49 NE9       29.99F
DELTA          PTSUNNY   66  44  44 MISG      29.98F
NUCLA          PTSUNNY   64  34  32 N5        30.03S THUNDER
$$

COZ017>023-064>068-252200-
...SOUTHWEST COLORADO...

CITY           SKY/WX    TMP DP  RH WIND       PRES   REMARKS
DURANGO        PTSUNNY   58  41  53 VRB6      30.04F
CORTEZ         CLOUDY    55  47  74 N16       30.04R THUNDER
PAGOSA SPRINGS TSTM      45  43  90 NW3       30.10R
TELLURIDE      CLOUDY    42  40  91 E5        30.16R THUNDER
WOLF CREEK PAS NOT AVBL
$$

COZ009-010-012-014-032>034-037-058>063-252200-
...CENTRAL COLORADO...

CITY           SKY/WX    TMP DP  RH WIND       PRES   REMARKS
ASPEN          CLOUDY    52  38  58 VRB3      30.05F
BUENA VISTA    PTSUNNY   51  33  51 SW22G32   30.02S
COPPER MTN     CLOUDY    39  25  56 W9G16     30.19R
BERTHOUD PASS  PTSUNNY   27  19  74 W20G32    30.20R WCI  13
COTTONWOOD PAS LGT RAIN  43  36  75 W10       30.10S
GUNNISON       MOSUNNY   54  37  54 SW17G24   30.06S
KREMMLING      LGT RAIN  52  39  62 CALM      30.02F
LEADVILLE      MOSUNNY   46  29  51 NW15G22   30.10S
MONARCH PASS   CLOUDY    32  30  93 W23       30.29S WCI  19
SALIDA         MOSUNNY   58  36  44 SW13G20   30.07F
SUNLIGHT       CLOUDY    36  36 100 CALM      30.20R VSB<1/4
WILKERSON PASS PTSUNNY   45  23  42 CALM      30.17S
$$

COZ069>075-252200-
...SAN LUIS VALLEY/SANGRE DE CRISTO MOUNTAINS...

CITY           SKY/WX    TMP DP  RH WIND       PRES   REMARKS
ALAMOSA        PTSUNNY   60  31  33 N12       29.99F
LA VETA PASS   MOSUNNY  N/A N/A N/A MISG      30.11F THUNDER
SAGUACHE       MOSUNNY   59  32  36 NW7G16    30.02S
$$

COZ035-036-038>040-252200-
...NORTHERN COLORADO FRONT RANGE...

CITY           SKY/WX    TMP DP  RH WIND       PRES   REMARKS
DENVER INTL AP PTSUNNY   65  41  41 E8        29.91S
DMNS CITY PARK   N/A     67  38  34 NE12      29.89F
AURORA         NOT AVBL
FRONT RANGE AP NOT AVBL
ERIE MUNI ARPT PTSUNNY   64  40  41 E8        29.89S
BOULDER MUN AP PTSUNNY   63  43  48 NE9       29.90R
CENTENNIAL     PTSUNNY   64  37  36 NE6       29.91S
BROOMFIELD     PTSUNNY   66  39  37 NE7       29.91S
FORT COLLINS   PTSUNNY   66  45  45 NE15      29.90S
LONGMONT       PTSUNNY   70  42  36 E7        29.90S
$$

COZ041-046-047-076>085-087-088-252200-
...PIKES PEAK/PALMER DIVIDE AND SOUTHERN FOOTHILLS...

CITY           SKY/WX    TMP DP  RH WIND       PRES   REMARKS
COLO. SPRINGS  PTSUNNY   63  38  39 SE10G22   29.94F
A. F. ACADEMY  NOT AVBL
ELLICOTT       NOT AVBL
FALCON         LGT RAIN  52  40  63 NE9       29.99R
FORT CARSON    NOT AVBL
LIMON          MOSUNNY   62  41  46 VRB3      29.94F
MONUMENT HILL  NOT AVBL
TRINIDAD       TSTM      50  46  86 SW5       29.99R FOG
$$

COZ042>045-048>051-090-091-252200-
...NORTHEAST COLORADO...

CITY           SKY/WX    TMP DP  RH WIND       PRES   REMARKS
GREELEY ARPT   PTSUNNY   61  45  55 E12G17    29.92R
AKRON          CLOUDY    57  45  64 NW16      29.93R
BURLINGTON     PTSUNNY   65  45  48 W7        29.91F
WRAY           PTSUNNY   62  47  57 W15       29.90F
STERLING       CLOUDY    57  48  72 NW12      29.90R
HOLYOKE        NOT AVBL
FORT MORGAN    CLOUDY    60  45  57 N16G22    29.93R
$$

COZ086-089-092>099-252200-
...SOUTHEAST COLORADO...

CITY           SKY/WX    TMP DP  RH WIND       PRES   REMARKS
PUEBLO         MOSUNNY   68  47  46 S17       29.88S
LA JUNTA       MOSUNNY   69  49  48 E8        29.87F
LAMAR          PTSUNNY   68  48  48 MISG      29.85F
SPRINGFIELD      N/A     71  43  36 SE8       29.87F
$$


USA.gov is the U.S. government's official web portal to all federal, state and local government web resources and services.